"Time","Value","Approval","myLocation"
"2023-05-07 00:00",14.5969118164459,"Approved","OW118"
"2023-05-07 01:00",14.5960336044746,"Approved","OW118"
"2023-05-07 02:00",14.5941553925033,"Approved","OW118"
"2023-05-07 03:00",14.592277180532,"Approved","OW118"
"2023-05-07 04:00",14.5923989685606,"Approved","OW118"
"2023-05-07 05:00",14.5925207565893,"Approved","OW118"
"2023-05-07 06:00",14.593642544618,"Approved","OW118"
"2023-05-07 07:00",14.5937643326467,"Approved","OW118"
"2023-05-07 08:00",14.5948861206754,"Approved","OW118"
"2023-05-07 09:00",14.5950079087041,"Approved","OW118"
"2023-05-07 10:00",14.5941296967328,"Approved","OW118"
"2023-05-07 11:00",14.5942514847615,"Approved","OW118"
"2023-05-07 12:00",14.5943732727901,"Approved","OW118"
"2023-05-07 13:00",14.5944950608188,"Approved","OW118"
"2023-05-07 14:00",14.5966168488475,"Approved","OW118"
"2023-05-07 15:00",14.5987386368762,"Approved","OW118"
"2023-05-07 16:00",14.6018604249049,"Approved","OW118"
"2023-05-07 17:00",14.6049822129336,"Approved","OW118"
"2023-05-07 18:00",14.6071040009623,"Approved","OW118"
"2023-05-07 19:00",14.610225788991,"Approved","OW118"
"2023-05-07 20:00",14.6113475770197,"Approved","OW118"
"2023-05-07 21:00",14.6124693650483,"Approved","OW118"
"2023-05-07 22:00",14.611591153077,"Approved","OW118"
"2023-05-07 23:00",14.6087129411057,"Approved","OW118"
"2023-05-08 00:00",14.6068347291344,"Approved","OW118"
"2023-05-08 01:00",14.6049565171631,"Approved","OW118"
"2023-05-08 02:00",14.6020783051918,"Approved","OW118"
"2023-05-08 03:00",14.6012000932205,"Approved","OW118"
"2023-05-08 04:00",14.6003218812492,"Approved","OW118"
"2023-05-08 05:00",14.5994436692778,"Approved","OW118"
"2023-05-08 06:00",14.5995654573065,"Approved","OW118"
"2023-05-08 07:00",14.6006872453352,"Approved","OW118"
"2023-05-08 08:00",14.6008090333639,"Approved","OW118"
"2023-05-08 09:00",14.6009308213926,"Approved","OW118"
"2023-05-08 10:00",14.6000526094213,"Approved","OW118"
"2023-05-08 11:00",14.60017439745,"Approved","OW118"
"2023-05-08 12:00",14.6002961854787,"Approved","OW118"
"2023-05-08 13:00",14.6004179735073,"Approved","OW118"
"2023-05-08 14:00",14.602539761536,"Approved","OW118"
"2023-05-08 15:00",14.6036615495647,"Approved","OW118"
"2023-05-08 16:00",14.6047833375934,"Approved","OW118"
"2023-05-08 17:00",14.6069051256221,"Approved","OW118"
"2023-05-08 18:00",14.6090269136508,"Approved","OW118"
"2023-05-08 19:00",14.6101487016795,"Approved","OW118"
"2023-05-08 20:00",14.6102704897082,"Approved","OW118"
"2023-05-08 21:00",14.6103922777368,"Approved","OW118"
"2023-05-08 22:00",14.6095140657655,"Approved","OW118"
"2023-05-08 23:00",14.6086358537942,"Approved","OW118"
"2023-05-09 00:00",14.6067576418229,"Approved","OW118"
"2023-05-09 01:00",14.6038794298516,"Approved","OW118"
"2023-05-09 02:00",14.6040012178803,"Approved","OW118"
"2023-05-09 03:00",14.602123005909,"Approved","OW118"
"2023-05-09 04:00",14.6022447939377,"Approved","OW118"
"2023-05-09 05:00",14.6013665819664,"Approved","OW118"
"2023-05-09 06:00",14.600488369995,"Approved","OW118"
"2023-05-09 07:00",14.6016101580237,"Approved","OW118"
"2023-05-09 08:00",14.6017319460524,"Approved","OW118"
"2023-05-09 09:00",14.6008537340811,"Approved","OW118"
"2023-05-09 10:00",14.6019755221098,"Approved","OW118"
"2023-05-09 11:00",14.6020973101385,"Approved","OW118"
"2023-05-09 12:00",14.6032190981672,"Approved","OW118"
"2023-05-09 13:00",14.6033408861959,"Approved","OW118"
"2023-05-09 14:00",14.6044626742245,"Approved","OW118"
"2023-05-09 15:00",14.6065844622532,"Approved","OW118"
"2023-05-09 16:00",14.6077062502819,"Approved","OW118"
"2023-05-09 17:00",14.6098280383106,"Approved","OW118"
"2023-05-09 18:00",14.6109498263393,"Approved","OW118"
"2023-05-09 19:00",14.613071614368,"Approved","OW118"
"2023-05-09 20:00",14.6131934023967,"Approved","OW118"
"2023-05-09 21:00",14.6143151904254,"Approved","OW118"
"2023-05-09 22:00",14.614436978454,"Approved","OW118"
"2023-05-09 23:00",14.6145587664827,"Approved","OW118"
"2023-05-10 00:00",14.6136805545114,"Approved","OW118"
"2023-05-10 01:00",14.6118023425401,"Approved","OW118"
"2023-05-10 02:00",14.6099241305688,"Approved","OW118"
"2023-05-10 03:00",14.6090459185975,"Approved","OW118"
"2023-05-10 04:00",14.6081677066262,"Approved","OW118"
"2023-05-10 05:00",14.6072894946549,"Approved","OW118"
"2023-05-10 06:00",14.6064112826835,"Approved","OW118"
"2023-05-10 07:00",14.6055330707122,"Approved","OW118"
"2023-05-10 08:00",14.6056548587409,"Approved","OW118"
"2023-05-10 09:00",14.6057766467696,"Approved","OW118"
"2023-05-10 10:00",14.6058984347983,"Approved","OW118"
"2023-05-10 11:00",14.606020222827,"Approved","OW118"
"2023-05-10 12:00",14.6071420108557,"Approved","OW118"
"2023-05-10 13:00",14.6072637988844,"Approved","OW118"
"2023-05-10 14:00",14.608385586913,"Approved","OW118"
"2023-05-10 15:00",14.6085073749417,"Approved","OW118"
"2023-05-10 16:00",14.6096291629704,"Approved","OW118"
"2023-05-10 17:00",14.6087509509991,"Approved","OW118"
"2023-05-10 18:00",14.6088727390278,"Approved","OW118"
"2023-05-10 19:00",14.6089945270565,"Approved","OW118"
"2023-05-10 20:00",14.6091163150852,"Approved","OW118"
"2023-05-10 21:00",14.6102381031139,"Approved","OW118"
"2023-05-10 22:00",14.6103598911426,"Approved","OW118"
"2023-05-10 23:00",14.6104816791712,"Approved","OW118"
"2023-05-11 00:00",14.6106034671999,"Approved","OW118"
"2023-05-11 01:00",14.6097252552286,"Approved","OW118"
"2023-05-11 02:00",14.6088470432573,"Approved","OW118"
"2023-05-11 03:00",14.609968831286,"Approved","OW118"
"2023-05-11 04:00",14.6110906193147,"Approved","OW118"
"2023-05-11 05:00",14.6092124073434,"Approved","OW118"
"2023-05-11 06:00",14.6093341953721,"Approved","OW118"
"2023-05-11 07:00",14.6084559834007,"Approved","OW118"
"2023-05-11 08:00",14.6085777714294,"Approved","OW118"
"2023-05-11 09:00",14.6086995594581,"Approved","OW118"
"2023-05-11 10:00",14.6088213474868,"Approved","OW118"
"2023-05-11 11:00",14.6099431355155,"Approved","OW118"
"2023-05-11 12:00",14.6100649235442,"Approved","OW118"
"2023-05-11 13:00",14.6111867115729,"Approved","OW118"
"2023-05-11 14:00",14.6133084996016,"Approved","OW118"
"2023-05-11 15:00",14.6144302876302,"Approved","OW118"
"2023-05-11 16:00",14.6145520756589,"Approved","OW118"
"2023-05-11 17:00",14.6146738636876,"Approved","OW118"
"2023-05-11 18:00",14.6147956517163,"Approved","OW118"
"2023-05-11 19:00",14.614917439745,"Approved","OW118"
"2023-05-11 20:00",14.6150392277737,"Approved","OW118"
"2023-05-11 21:00",14.6151610158024,"Approved","OW118"
"2023-05-11 22:00",14.6152828038311,"Approved","OW118"
"2023-05-11 23:00",14.6154045918597,"Approved","OW118"
"2023-05-12 00:00",14.6155263798884,"Approved","OW118"
"2023-05-12 01:00",14.6156481679171,"Approved","OW118"
"2023-05-12 02:00",14.6157699559458,"Approved","OW118"
"2023-05-12 03:00",14.6158917439745,"Approved","OW118"
"2023-05-12 04:00",14.6160135320032,"Approved","OW118"
"2023-05-12 05:00",14.6161353200319,"Approved","OW118"
"2023-05-12 06:00",14.6162571080606,"Approved","OW118"
"2023-05-12 07:00",14.6173788960893,"Approved","OW118"
"2023-05-12 08:00",14.6175006841179,"Approved","OW118"
"2023-05-12 09:00",14.6186224721466,"Approved","OW118"
"2023-05-12 10:00",14.6187442601753,"Approved","OW118"
"2023-05-12 11:00",14.620866048204,"Approved","OW118"
"2023-05-12 12:00",14.6219878362327,"Approved","OW118"
"2023-05-12 13:00",14.6241096242614,"Approved","OW118"
"2023-05-12 14:00",14.6262314122901,"Approved","OW118"
"2023-05-12 15:00",14.6283532003188,"Approved","OW118"
"2023-05-12 16:00",14.6284749883474,"Approved","OW118"
"2023-05-12 17:00",14.6275967763761,"Approved","OW118"
"2023-05-12 18:00",14.6277185644048,"Approved","OW118"
"2023-05-12 19:00",14.6268403524335,"Approved","OW118"
"2023-05-12 20:00",14.6269621404622,"Approved","OW118"
"2023-05-12 21:00",14.6270839284909,"Approved","OW118"
"2023-05-12 22:00",14.6272057165196,"Approved","OW118"
"2023-05-12 23:00",14.6263275045483,"Approved","OW118"
"2023-05-13 00:00",14.6264492925769,"Approved","OW118"
"2023-05-13 01:00",14.6265710806056,"Approved","OW118"
"2023-05-13 02:00",14.6266928686343,"Approved","OW118"
"2023-05-13 03:00",14.626814656663,"Approved","OW118"
"2023-05-13 04:00",14.6269364446917,"Approved","OW118"
"2023-05-13 05:00",14.6280582327204,"Approved","OW118"
"2023-05-13 06:00",14.6271800207491,"Approved","OW118"
"2023-05-13 07:00",14.6273018087778,"Approved","OW118"
"2023-05-13 08:00",14.6274235968064,"Approved","OW118"
"2023-05-13 09:00",14.6275453848351,"Approved","OW118"
"2023-05-13 10:00",14.6276671728638,"Approved","OW118"
"2023-05-13 11:00",14.6287889608925,"Approved","OW118"
"2023-05-13 12:00",14.6299107489212,"Approved","OW118"
"2023-05-13 13:00",14.6320325369499,"Approved","OW118"
"2023-05-13 14:00",14.6341543249786,"Approved","OW118"
"2023-05-13 15:00",14.6352761130073,"Approved","OW118"
"2023-05-13 16:00",14.6353979010359,"Approved","OW118"
"2023-05-13 17:00",14.6345196890646,"Approved","OW118"
"2023-05-13 18:00",14.6336414770933,"Approved","OW118"
"2023-05-13 19:00",14.630763265122,"Approved","OW118"
"2023-05-13 20:00",14.6298850531507,"Approved","OW118"
"2023-05-13 21:00",14.6280068411794,"Approved","OW118"
"2023-05-13 22:00",14.6251286292081,"Approved","OW118"
"2023-05-13 23:00",14.6242504172368,"Approved","OW118"
"2023-05-14 00:00",14.6233722052655,"Approved","OW118"
"2023-05-14 01:00",14.6234939932941,"Approved","OW118"
"2023-05-14 02:00",14.6236157813228,"Approved","OW118"
"2023-05-14 03:00",14.6247375693515,"Approved","OW118"
"2023-05-14 04:00",14.6258593573802,"Approved","OW118"
"2023-05-14 05:00",14.6249811454089,"Approved","OW118"
"2023-05-14 06:00",14.6251029334376,"Approved","OW118"
"2023-05-14 07:00",14.6242247214663,"Approved","OW118"
"2023-05-14 08:00",14.623346509495,"Approved","OW118"
"2023-05-14 09:00",14.6224682975236,"Approved","OW118"
"2023-05-14 10:00",14.6205900855523,"Approved","OW118"
"2023-05-14 11:00",14.620711873581,"Approved","OW118"
"2023-05-14 12:00",14.6208336616097,"Approved","OW118"
"2023-05-14 13:00",14.6219554496384,"Approved","OW118"
"2023-05-14 14:00",14.6230772376671,"Approved","OW118"
"2023-05-14 15:00",14.6241990256958,"Approved","OW118"
"2023-05-14 16:00",14.6233208137245,"Approved","OW118"
"2023-05-14 17:00",14.6224426017531,"Approved","OW118"
"2023-05-14 18:00",14.6195643897818,"Approved","OW118"
"2023-05-14 19:00",14.6166861778105,"Approved","OW118"
"2023-05-14 20:00",14.6128079658392,"Approved","OW118"
"2023-05-14 21:00",14.6089297538679,"Approved","OW118"
"2023-05-14 22:00",14.6070515418966,"Approved","OW118"
"2023-05-14 23:00",14.6061733299253,"Approved","OW118"
"2023-05-15 00:00",14.605295117954,"Approved","OW118"
"2023-05-15 01:00",14.6054169059826,"Approved","OW118"
"2023-05-15 02:00",14.6055386940113,"Approved","OW118"
"2023-05-15 03:00",14.60566048204,"Approved","OW118"
"2023-05-15 04:00",14.6057822700687,"Approved","OW118"
"2023-05-15 05:00",14.6069040580974,"Approved","OW118"
"2023-05-15 06:00",14.6070258461261,"Approved","OW118"
"2023-05-15 07:00",14.6051476341548,"Approved","OW118"
"2023-05-15 08:00",14.6042694221835,"Approved","OW118"
"2023-05-15 09:00",14.6033912102122,"Approved","OW118"
"2023-05-15 10:00",14.6025129982408,"Approved","OW118"
"2023-05-15 11:00",14.6026347862695,"Approved","OW118"
"2023-05-15 12:00",14.6017565742982,"Approved","OW118"
"2023-05-15 13:00",14.6048783623269,"Approved","OW118"
"2023-05-15 14:00",14.6060001503556,"Approved","OW118"
"2023-05-15 15:00",14.6071219383843,"Approved","OW118"
"2023-05-15 16:00",14.608243726413,"Approved","OW118"
"2023-05-15 17:00",14.6073655144417,"Approved","OW118"
"2023-05-15 18:00",14.6054873024703,"Approved","OW118"
"2023-05-15 19:00",14.602609090499,"Approved","OW118"
"2023-05-15 20:00",14.5997308785277,"Approved","OW118"
"2023-05-15 21:00",14.5968526665564,"Approved","OW118"
"2023-05-15 22:00",14.5929744545851,"Approved","OW118"
"2023-05-15 23:00",14.5910962426138,"Approved","OW118"
"2023-05-16 00:00",14.5882180306425,"Approved","OW118"
"2023-05-16 01:00",14.5873398186712,"Approved","OW118"
"2023-05-16 02:00",14.5874616066998,"Approved","OW118"
"2023-05-16 03:00",14.5895833947285,"Approved","OW118"
"2023-05-16 04:00",14.5907051827572,"Approved","OW118"
"2023-05-16 05:00",14.5928269707859,"Approved","OW118"
"2023-05-16 06:00",14.5929487588146,"Approved","OW118"
"2023-05-16 07:00",14.5950705468433,"Approved","OW118"
"2023-05-16 08:00",14.594192334872,"Approved","OW118"
"2023-05-16 09:00",14.5943141229007,"Approved","OW118"
"2023-05-16 10:00",14.5944359109293,"Approved","OW118"
"2023-05-16 11:00",14.595557698958,"Approved","OW118"
"2023-05-16 12:00",14.5966794869867,"Approved","OW118"
"2023-05-16 13:00",14.5998012750154,"Approved","OW118"
"2023-05-16 14:00",14.6039230630441,"Approved","OW118"
"2023-05-16 15:00",14.6060448510728,"Approved","OW118"
"2023-05-16 16:00",14.6081666391015,"Approved","OW118"
"2023-05-16 17:00",14.6092884271302,"Approved","OW118"
"2023-05-16 18:00",14.6094102151589,"Approved","OW118"
"2023-05-16 19:00",14.6075320031875,"Approved","OW118"
"2023-05-16 20:00",14.6046537912162,"Approved","OW118"
"2023-05-16 21:00",14.6017755792449,"Approved","OW118"
"2023-05-16 22:00",14.5968973672736,"Approved","OW118"
"2023-05-16 23:00",14.5940191553023,"Approved","OW118"
"2023-05-17 00:00",14.592140943331,"Approved","OW118"
"2023-05-17 01:00",14.5902627313597,"Approved","OW118"
"2023-05-17 02:00",14.5913845193884,"Approved","OW118"
"2023-05-17 03:00",14.594506307417,"Approved","OW118"
"2023-05-17 04:00",14.5966280954457,"Approved","OW118"
"2023-05-17 05:00",14.5987498834744,"Approved","OW118"
"2023-05-17 06:00",14.5998716715031,"Approved","OW118"
"2023-05-17 07:00",14.5999934595318,"Approved","OW118"
"2023-05-17 08:00",14.6001152475605,"Approved","OW118"
"2023-05-17 09:00",14.6002370355892,"Approved","OW118"
"2023-05-17 10:00",14.6003588236179,"Approved","OW118"
"2023-05-17 11:00",14.6004806116465,"Approved","OW118"
"2023-05-17 12:00",14.6016023996752,"Approved","OW118"
"2023-05-17 13:00",14.6037241877039,"Approved","OW118"
"2023-05-17 14:00",14.6068459757326,"Approved","OW118"
"2023-05-17 15:00",14.6109677637613,"Approved","OW118"
"2023-05-17 16:00",14.61208955179,"Approved","OW118"
"2023-05-17 17:00",14.6142113398187,"Approved","OW118"
"2023-05-17 18:00",14.6143331278474,"Approved","OW118"
"2023-05-17 19:00",14.613454915876,"Approved","OW118"
"2023-05-17 20:00",14.6105767039047,"Approved","OW118"
"2023-05-17 21:00",14.6066984919334,"Approved","OW118"
"2023-05-17 22:00",14.6028202799621,"Approved","OW118"
"2023-05-17 23:00",14.5989420679908,"Approved","OW118"
"2023-05-18 00:00",14.5960638560195,"Approved","OW118"
"2023-05-18 01:00",14.5941856440482,"Approved","OW118"
"2023-05-18 02:00",14.5923074320769,"Approved","OW118"
"2023-05-18 03:00",14.5934292201055,"Approved","OW118"
"2023-05-18 04:00",14.5945510081342,"Approved","OW118"
"2023-05-18 05:00",14.5956727961629,"Approved","OW118"
"2023-05-18 06:00",14.5977945841916,"Approved","OW118"
"2023-05-18 07:00",14.5999163722203,"Approved","OW118"
"2023-05-18 08:00",14.600038160249,"Approved","OW118"
"2023-05-18 09:00",14.6001599482777,"Approved","OW118"
"2023-05-18 10:00",14.6012817363064,"Approved","OW118"
"2023-05-18 11:00",14.6024035243351,"Approved","OW118"
"2023-05-18 12:00",14.6035253123637,"Approved","OW118"
"2023-05-18 13:00",14.6056471003924,"Approved","OW118"
"2023-05-18 14:00",14.6087688884211,"Approved","OW118"
"2023-05-18 15:00",14.6128906764498,"Approved","OW118"
"2023-05-18 16:00",14.6160124644785,"Approved","OW118"
"2023-05-18 17:00",14.6191342525072,"Approved","OW118"
"2023-05-18 18:00",14.6202560405359,"Approved","OW118"
"2023-05-18 19:00",14.6193778285646,"Approved","OW118"
"2023-05-18 20:00",14.6174996165932,"Approved","OW118"
"2023-05-18 21:00",14.6156214046219,"Approved","OW118"
"2023-05-18 22:00",14.6127431926506,"Approved","OW118"
"2023-05-18 23:00",14.6088649806793,"Approved","OW118"
"2023-05-19 00:00",14.604986768708,"Approved","OW118"
"2023-05-19 01:00",14.6051085567367,"Approved","OW118"
"2023-05-19 02:00",14.6072303447654,"Approved","OW118"
"2023-05-19 03:00",14.6013521327941,"Approved","OW118"
"2023-05-19 04:00",14.6094739208227,"Approved","OW118"
"2023-05-19 05:00",14.6125957088514,"Approved","OW118"
"2023-05-19 06:00",14.6117174968801,"Approved","OW118"
"2023-05-19 07:00",14.6148392849088,"Approved","OW118"
"2023-05-19 08:00",14.6139610729375,"Approved","OW118"
"2023-05-19 09:00",14.6150828609662,"Approved","OW118"
"2023-05-19 10:00",14.6142046489949,"Approved","OW118"
"2023-05-19 11:00",14.6143264370236,"Approved","OW118"
"2023-05-19 12:00",14.6134482250522,"Approved","OW118"
"2023-05-19 13:00",14.6155700130809,"Approved","OW118"
"2023-05-19 14:00",14.6176918011096,"Approved","OW118"
"2023-05-19 15:00",14.6208135891383,"Approved","OW118"
"2023-05-19 16:00",14.622935377167,"Approved","OW118"
"2023-05-19 17:00",14.6250571651957,"Approved","OW118"
"2023-05-19 18:00",14.6251789532244,"Approved","OW118"
"2023-05-19 19:00",14.6253007412531,"Approved","OW118"
"2023-05-19 20:00",14.6234225292818,"Approved","OW118"
"2023-05-19 21:00",14.6215443173104,"Approved","OW118"
"2023-05-19 22:00",14.6186661053391,"Approved","OW118"
"2023-05-19 23:00",14.6147878933678,"Approved","OW118"
"2023-05-20 00:00",14.6109096813965,"Approved","OW118"
"2023-05-20 01:00",14.6080314694252,"Approved","OW118"
"2023-05-20 02:00",14.6051532574539,"Approved","OW118"
"2023-05-20 03:00",14.6042750454826,"Approved","OW118"
"2023-05-20 04:00",14.6053968335113,"Approved","OW118"
"2023-05-20 05:00",14.6065186215399,"Approved","OW118"
"2023-05-20 06:00",14.6086404095686,"Approved","OW118"
"2023-05-20 07:00",14.6097621975973,"Approved","OW118"
"2023-05-20 08:00",14.611883985626,"Approved","OW118"
"2023-05-20 09:00",14.6120057736547,"Approved","OW118"
"2023-05-20 10:00",14.6121275616834,"Approved","OW118"
"2023-05-20 11:00",14.6122493497121,"Approved","OW118"
"2023-05-20 12:00",14.6123711377408,"Approved","OW118"
"2023-05-20 13:00",14.6144929257694,"Approved","OW118"
"2023-05-20 14:00",14.6176147137981,"Approved","OW118"
"2023-05-20 15:00",14.6217365018268,"Approved","OW118"
"2023-05-20 16:00",14.6228582898555,"Approved","OW118"
"2023-05-20 17:00",14.6249800778842,"Approved","OW118"
"2023-05-20 18:00",14.6271018659129,"Approved","OW118"
"2023-05-20 19:00",14.6272236539416,"Approved","OW118"
"2023-05-20 20:00",14.6263454419703,"Approved","OW118"
"2023-05-20 21:00",14.6234672299989,"Approved","OW118"
"2023-05-20 22:00",14.6205890180276,"Approved","OW118"
"2023-05-20 23:00",14.6177108060563,"Approved","OW118"
"2023-05-21 00:00",14.616832594085,"Approved","OW118"
"2023-05-21 01:00",14.6109543821137,"Approved","OW118"
"2023-05-21 02:00",14.6090761701424,"Approved","OW118"
"2023-05-21 03:00",14.6091979581711,"Approved","OW118"
"2023-05-21 04:00",14.6113197461998,"Approved","OW118"
"2023-05-21 05:00",14.6134415342285,"Approved","OW118"
"2023-05-21 06:00",14.6145633222571,"Approved","OW118"
"2023-05-21 07:00",14.6156851102858,"Approved","OW118"
"2023-05-21 08:00",14.6168068983145,"Approved","OW118"
"2023-05-21 09:00",14.6169286863432,"Approved","OW118"
"2023-05-21 10:00",14.6170504743719,"Approved","OW118"
"2023-05-21 11:00",14.6171722624006,"Approved","OW118"
"2023-05-21 12:00",14.6172940504293,"Approved","OW118"
"2023-05-21 13:00",14.618415838458,"Approved","OW118"
"2023-05-21 14:00",14.6205376264866,"Approved","OW118"
"2023-05-21 15:00",14.6266594145153,"Approved","OW118"
"2023-05-21 16:00",14.628781202544,"Approved","OW118"
"2023-05-21 17:00",14.6279029905727,"Approved","OW118"
"2023-05-21 18:00",14.6320247786014,"Approved","OW118"
"2023-05-21 19:00",14.6341465666301,"Approved","OW118"
"2023-05-21 20:00",14.6342683546588,"Approved","OW118"
"2023-05-21 21:00",14.6333901426875,"Approved","OW118"
"2023-05-21 22:00",14.6325119307161,"Approved","OW118"
"2023-05-21 23:00",14.6286337187448,"Approved","OW118"
"2023-05-22 00:00",14.6277555067735,"Approved","OW118"
"2023-05-22 01:00",14.6238772948022,"Approved","OW118"
"2023-05-22 02:00",14.6209990828309,"Approved","OW118"
"2023-05-22 03:00",14.6201208708596,"Approved","OW118"
"2023-05-22 04:00",14.6202426588883,"Approved","OW118"
"2023-05-22 05:00",14.620364446917,"Approved","OW118"
"2023-05-22 06:00",14.6204862349456,"Approved","OW118"
"2023-05-22 07:00",14.6216080229743,"Approved","OW118"
"2023-05-22 08:00",14.623729811003,"Approved","OW118"
"2023-05-22 09:00",14.6248515990317,"Approved","OW118"
"2023-05-22 10:00",14.6249733870604,"Approved","OW118"
"2023-05-22 11:00",14.6250951750891,"Approved","OW118"
"2023-05-22 12:00",14.6252169631178,"Approved","OW118"
"2023-05-22 13:00",14.6253387511465,"Approved","OW118"
"2023-05-22 14:00",14.6254605391751,"Approved","OW118"
"2023-05-22 15:00",14.6275823272038,"Approved","OW118"
"2023-05-22 16:00",14.6297041152325,"Approved","OW118"
"2023-05-22 17:00",14.6308259032612,"Approved","OW118"
"2023-05-22 18:00",14.6339476912899,"Approved","OW118"
"2023-05-22 19:00",14.6370694793186,"Approved","OW118"
"2023-05-22 20:00",14.6381912673473,"Approved","OW118"
"2023-05-22 21:00",14.640313055376,"Approved","OW118"
"2023-05-22 22:00",14.6394348434047,"Approved","OW118"
"2023-05-22 23:00",14.6395566314333,"Approved","OW118"
"2023-05-23 00:00",14.638678419462,"Approved","OW118"
"2023-05-23 01:00",14.6358002074907,"Approved","OW118"
"2023-05-23 02:00",14.6349219955194,"Approved","OW118"
"2023-05-23 03:00",14.6330437835481,"Approved","OW118"
"2023-05-23 04:00",14.6321655715768,"Approved","OW118"
"2023-05-23 05:00",14.6312873596055,"Approved","OW118"
"2023-05-23 06:00",14.6314091476342,"Approved","OW118"
"2023-05-23 07:00",14.6315309356628,"Approved","OW118"
"2023-05-23 08:00",14.6316527236915,"Approved","OW118"
"2023-05-23 09:00",14.6317745117202,"Approved","OW118"
"2023-05-23 10:00",14.6318962997489,"Approved","OW118"
"2023-05-23 11:00",14.6330180877776,"Approved","OW118"
"2023-05-23 12:00",14.6321398758063,"Approved","OW118"
"2023-05-23 13:00",14.632261663835,"Approved","OW118"
"2023-05-23 14:00",14.6333834518637,"Approved","OW118"
"2023-05-23 15:00",14.6355052398923,"Approved","OW118"
"2023-05-23 16:00",14.637627027921,"Approved","OW118"
"2023-05-23 17:00",14.6387488159497,"Approved","OW118"
"2023-05-23 18:00",14.6418706039784,"Approved","OW118"
"2023-05-23 19:00",14.6439923920071,"Approved","OW118"
"2023-05-23 20:00",14.6451141800358,"Approved","OW118"
"2023-05-23 21:00",14.6462359680645,"Approved","OW118"
"2023-05-23 22:00",14.6473577560932,"Approved","OW118"
"2023-05-23 23:00",14.6454795441218,"Approved","OW118"
"2023-05-24 00:00",14.6446013321505,"Approved","OW118"
"2023-05-24 01:00",14.6437231201792,"Approved","OW118"
"2023-05-24 02:00",14.6428449082079,"Approved","OW118"
"2023-05-24 03:00",14.6409666962366,"Approved","OW118"
"2023-05-24 04:00",14.6400884842653,"Approved","OW118"
"2023-05-24 05:00",14.639210272294,"Approved","OW118"
"2023-05-24 06:00",14.6383320603227,"Approved","OW118"
"2023-05-24 07:00",14.6374538483514,"Approved","OW118"
"2023-05-24 08:00",14.63757563638,"Approved","OW118"
"2023-05-24 09:00",14.6376974244087,"Approved","OW118"
"2023-05-24 10:00",14.6368192124374,"Approved","OW118"
"2023-05-24 11:00",14.6369410004661,"Approved","OW118"
"2023-05-24 12:00",14.6380627884948,"Approved","OW118"
"2023-05-24 13:00",14.6391845765235,"Approved","OW118"
"2023-05-24 14:00",14.6393063645522,"Approved","OW118"
"2023-05-24 15:00",14.6394281525809,"Approved","OW118"
"2023-05-24 16:00",14.6405499406095,"Approved","OW118"
"2023-05-24 17:00",14.6406717286382,"Approved","OW118"
"2023-05-24 18:00",14.6427935166669,"Approved","OW118"
"2023-05-24 19:00",14.6439153046956,"Approved","OW118"